Weather History for Valparaiso, FL

Change the Weather History Date:

Thursday, October 4, 2012

  Actual Average Record
Temperature  
Mean Temperature 74 °F -  
Max Temperature 85 °F 83 °F 99 °F (1954)
Min Temperature 63 °F 56 °F 37 °F (1984)
Cooling Degree Days 9    
Growing Degree Days 24 (Base 50)    
Moisture  
Dew Point 66 °F    
Average Humidity 86    
Maximum Humidity 100    
Minimum Humidity 40    
Precipitation  
Precipitation 0.00 in - - ()
Sea Level Pressure  
Sea Level Pressure 30.19 in    
Wind  
Wind Speed 5 mph (NNE)    
Max Wind Speed 9 mph    
Max Gust Speed -    
Visibility 6 miles    
Events Fog    
Averages and records for this station are not official NWS values.
T = Trace of Precipitation, MM = Missing Value Source: NWS Daily Summary

Daily Weather History Graph

Daily Weather History Graph

Search for Another Location

Airport:

Trip Planner

Search our weather history database for the weather conditions in past years. The results will help you decide how hot, cold, wet, or windy it might be!

Date:

Astronomy

Oct. 04, 2012 Rise Set
Actual Time 6:41 AM CDT 6:27 PM CDT
Civil Twilight 6:17 AM CDT 6:51 PM CDT
Nautical Twilight 5:49 AM CDT 7:18 PM CDT
Astronomical Twilight 5:21 AM CDT 7:46 PM CDT
Moon 9:21 PM CDT (10/4) 10:39 AM CDT (10/4)
Length of Visible Light 12h 33m
Length of Day
11h 45m
Waning Gibbous, 82% of the Moon is Illuminated
Oct 4
Waning Gibbous
Oct 8
Last Quarter
Oct 15
New
Oct 21
First Quarter
Oct 29
Full

Hourly Weather History & Observations

Time (CDT) Temp. Heat Index Dew Point Humidity Pressure Visibility Wind Dir Wind Speed Gust Speed Precip Events Conditions
12:57 AM 66.9 °F - 63.1 °F 88% 30.15 in 10.0 mi NE 4.6 mph - N/A   Mostly Cloudy
1:56 AM 67.5 °F - 64.6 °F 90% 30.15 in 10.0 mi NNE 4.6 mph - N/A   Mostly Cloudy
2:55 AM 65.7 °F - 64.0 °F 94% 30.15 in 10.0 mi North 2.3 mph - N/A   Scattered Clouds
3:56 AM 64.4 °F - 63.0 °F 95% 30.17 in 10.0 mi North 4.6 mph - N/A   Scattered Clouds
4:38 AM 64.4 °F - 62.6 °F 94% 30.17 in 6.0 mi North 3.5 mph - N/A   Scattered Clouds
4:57 AM 63.9 °F - 62.6 °F 96% 30.19 in 6.0 mi NNE 3.5 mph - N/A   Mostly Cloudy
5:13 AM 64.4 °F - 62.6 °F 94% 30.18 in 5.0 mi North 3.5 mph - N/A   Overcast
5:28 AM 64.4 °F - 62.6 °F 94% 30.18 in 7.0 mi North 3.5 mph - N/A   Overcast
5:46 AM 64.4 °F - 64.4 °F 100% 30.18 in 2.5 mi NNW 3.5 mph - N/A   Overcast
5:51 AM 64.4 °F - 64.4 °F 100% 30.18 in 1.5 mi NNW 3.5 mph - N/A   Overcast
5:57 AM 64.9 °F - 64.0 °F 97% 30.20 in 1.2 mi North 3.5 mph - N/A   Overcast
6:20 AM 64.4 °F - 64.4 °F 100% 30.20 in 0.8 mi North 3.5 mph - N/A   Overcast
6:35 AM 64.4 °F - 64.4 °F 100% 30.20 in 0.5 mi North 2.3 mph - N/A Fog Fog
6:55 AM 64.8 °F - 64.2 °F 98% 30.22 in 0.5 mi NNE 3.5 mph - N/A Fog Fog
7:55 AM 66.0 °F - 65.5 °F 98% 30.22 in 0.8 mi NE 5.8 mph - N/A   Overcast
8:20 AM 66.2 °F - 66.2 °F 100% 30.22 in 0.8 mi NNE 5.8 mph - N/A   Overcast
8:55 AM 67.1 °F - 66.2 °F 97% 30.23 in 0.5 mi North 8.1 mph - N/A Fog Fog
9:12 AM 68.0 °F - 66.2 °F 94% 30.21 in 0.8 mi North 6.9 mph - N/A   Overcast
9:22 AM 68.0 °F - 66.2 °F 94% 30.21 in 1.0 mi North 6.9 mph - N/A   Overcast
9:35 AM 68.0 °F - 66.2 °F 94% 30.22 in 2.5 mi North 8.1 mph - N/A   Overcast
9:38 AM 68.0 °F - 66.2 °F 94% 30.22 in 3.0 mi North 9.2 mph - N/A   Overcast
9:47 AM 69.8 °F - 66.2 °F 88% 30.22 in 5.0 mi North 5.8 mph - N/A   Overcast
9:55 AM 69.8 °F - 66.4 °F 89% 30.23 in 6.0 mi NNE 6.9 mph - N/A   Mostly Cloudy
10:02 AM 71.6 °F - 66.2 °F 83% 30.22 in 10.0 mi NNE 8.1 mph - N/A   Mostly Cloudy
10:14 AM 71.6 °F - 66.2 °F 83% 30.22 in 10.0 mi NNE 8.1 mph - N/A   Mostly Cloudy
10:55 AM 77.0 °F - 68.0 °F 74% 30.23 in 10.0 mi NNE 6.9 mph - N/A   Mostly Cloudy
11:55 AM 80.2 °F 82.7 °F 67.6 °F 65% 30.22 in 10.0 mi NNE 5.8 mph - N/A   Mostly Cloudy
12:55 PM 82.6 °F 83.4 °F 62.4 °F 50% 30.19 in 10.0 mi NE 9.2 mph - N/A   Mostly Cloudy
1:56 PM 84.9 °F 85.4 °F 62.1 °F 46% 30.17 in 10.0 mi NNE 9.2 mph - N/A   Mostly Cloudy
2:55 PM 85.3 °F 84.6 °F 58.3 °F 40% 30.17 in 10.0 mi ENE 4.6 mph - N/A   Mostly Cloudy
3:55 PM 82.0 °F 85.5 °F 69.4 °F 65% 30.16 in 10.0 mi Calm Calm - N/A   Mostly Cloudy
4:57 PM 79.9 °F - 70.2 °F 72% 30.14 in 10.0 mi SSE 5.8 mph - N/A   Mostly Cloudy
5:56 PM 77.9 °F - 70.9 °F 79% 30.14 in 10.0 mi ESE 3.5 mph - N/A   Mostly Cloudy
6:56 PM 75.7 °F - 71.1 °F 85% 30.15 in 10.0 mi WNW 2.3 mph - N/A   Mostly Cloudy
7:55 PM 75.6 °F - 68.0 °F 77% 30.17 in 10.0 mi NNE 3.5 mph - N/A   Scattered Clouds
8:57 PM 75.4 °F - 69.8 °F 83% 30.17 in 10.0 mi NNE 3.5 mph - N/A   Mostly Cloudy
9:55 PM 73.8 °F - 69.8 °F 87% 30.18 in 10.0 mi NE 2.3 mph - N/A   Mostly Cloudy
10:20 PM 73.4 °F - 69.8 °F 88% 30.17 in 10.0 mi ENE 3.5 mph - N/A   Mostly Cloudy
10:55 PM 73.4 °F - 70.0 °F 89% 30.18 in 8.0 mi NE 3.5 mph - N/A   Mostly Cloudy
11:55 PM 72.1 °F - 69.6 °F 92% 30.16 in 6.0 mi NNE 4.6 mph - N/A   Mostly Cloudy